TimeEDT,TemperatureF,Dew PointF,Humidity,Sea Level PressureIn,VisibilityMPH,Wind Direction,Wind SpeedMPH,Gust SpeedMPH,PrecipitationIn,Events,Conditions,WindDirDegrees,DateUTC
12:56 AM,37.9,32.9,82,30.27,10.0,Calm,Calm,-,N/A,,Clear,0,2013-04-18 04:56:00
1:56 AM,41.9,32.0,68,30.24,10.0,SE,3.5,-,N/A,,Clear,140,2013-04-18 05:56:00
2:56 AM,47.8,32.0,54,30.21,10.0,SE,9.2,-,N/A,,Overcast,140,2013-04-18 06:56:00
3:56 AM,47.8,32.9,56,30.18,10.0,SSE,15.0,-,N/A,,Clear,150,2013-04-18 07:56:00
4:56 AM,50.0,32.9,52,30.15,10.0,SSE,15.0,-,N/A,,Mostly Cloudy,150,2013-04-18 08:56:00
5:56 AM,50.9,36.0,57,30.16,10.0,SSE,15.0,21.9,N/A,,Overcast,150,2013-04-18 09:56:00
6:19 AM,51.8,35.6,54,30.15,10.0,SSE,16.1,25.3,N/A,,Overcast,160,2013-04-18 10:19:00
6:56 AM,52.9,36.0,53,30.16,10.0,South,16.1,26.5,N/A,,Mostly Cloudy,170,2013-04-18 10:56:00
7:56 AM,54.0,34.9,49,30.15,10.0,South,16.1,-,N/A,,Scattered Clouds,170,2013-04-18 11:56:00
8:56 AM,56.8,34.9,44,30.15,10.0,South,23.0,27.6,N/A,,Scattered Clouds,170,2013-04-18 12:56:00
9:56 AM,61.9,36.0,38,30.14,10.0,South,24.2,29.9,N/A,,Mostly Cloudy,170,2013-04-18 13:56:00
10:56 AM,61.9,36.9,39,30.12,10.0,South,24.2,29.9,N/A,,Scattered Clouds,180,2013-04-18 14:56:00
11:56 AM,63.9,38.8,40,30.09,10.0,South,28.8,34.5,N/A,,Partly Cloudy,180,2013-04-18 15:56:00
12:56 PM,61.9,38.8,43,30.08,10.0,South,28.8,38.0,N/A,,Mostly Cloudy,170,2013-04-18 16:56:00
1:56 PM,63.9,43.0,47,30.06,10.0,South,20.7,32.2,N/A,,Scattered Clouds,190,2013-04-18 17:56:00
2:56 PM,61.9,45.0,54,30.05,10.0,South,23.0,28.8,N/A,,Mostly Cloudy,180,2013-04-18 18:56:00
3:56 PM,63.0,47.8,58,30.03,10.0,South,21.9,32.2,N/A,,Mostly Cloudy,180,2013-04-18 19:56:00
4:56 PM,61.0,50.0,67,30.00,10.0,South,24.2,32.2,N/A,,Mostly Cloudy,180,2013-04-18 20:56:00
5:56 PM,59.0,48.9,69,29.99,10.0,South,20.7,26.5,N/A,,Overcast,180,2013-04-18 21:56:00
6:56 PM,59.0,50.9,74,29.95,10.0,South,21.9,31.1,N/A,,Mostly Cloudy,180,2013-04-18 22:56:00
7:56 PM,59.0,52.0,78,29.95,10.0,South,26.5,29.9,N/A,,Overcast,180,2013-04-18 23:56:00
8:56 PM,59.0,52.0,78,29.95,10.0,South,23.0,29.9,N/A,,Overcast,180,2013-04-19 00:56:00
9:56 PM,57.9,52.0,81,29.94,10.0,South,21.9,26.5,N/A,,Overcast,180,2013-04-19 01:56:00
10:56 PM,59.0,52.0,78,29.93,10.0,South,18.4,24.2,N/A,,Overcast,180,2013-04-19 02:56:00
11:56 PM,59.0,52.0,78,29.90,10.0,South,18.4,25.3,N/A,,Overcast,180,2013-04-19 03:56:00